Location: Alando
(42.3054°N, 9.2895°E)
Time: 14:57:52
(UTC+00:00)

Cosmos 614 Rocket - Pass Details

Date: 09 April 2020
Orbit: 734 x 763 km, 74.1° (Epoch: 05 June)

Event Time Altitude Azimuth Distance (km) Brightness Sun altitude
Rises 18:29:48 0° 190° (S) 3,211 7.2 -6.5°
Reaches altitude 10° 18:32:10 10° 188° (S) 2,289 6.4 -6.9°
Maximum altitude 18:37:19 67° 107° (ESE) 827 4.0 -7.8°
Drops below altitude 10° 18:42:29 10° 25° (NNE) 2,295 6.4 -8.7°
Sets 18:44:51 0° 23° (NNE) 3,220 7.2 -9.2°
